1,427,657개(31928/71383페이지)
LECTURE
번호 제목 글쓴이 조회 날짜
789117 web judi slots online dengan variasi keu 사진 WootenWentworth1837 5 2022.02.14 13:21
789116 The Game Of Texas Holdem Poker NicholsTempleton9410 7 2022.02.14 13:21
789115 Give You The Most significant Social Net 사진 SalinasBean8455 12 2022.02.14 13:21
789114 Free Rules For Poker - Improve Your Poke SharmaKhan4805 6 2022.02.14 13:20
789113 What You Should Know About Video Games BergNeal2996 6 2022.02.14 13:20
789112 Rules For Texas Hold'em Poker For Beginn DrachmannTerkildsen8900 9 2022.02.14 13:20
789111 Taking part in A Fantastic Video game: B 사진 BassMathiasen2412 4 2022.02.14 13:19
789110 What Might Bluetooth Hearing Aids Do To DalgaardGibson5293 6 2022.02.14 13:19
789109 Provide Me 15 Minutes, I'll Give You The SchofieldDennis4109 4 2022.02.14 13:19
789108 Simple Steps To Getting Started With Mob DillonRye0928 4 2022.02.14 13:19
789107 Review Of Texas Hold Em Poker Book - Lea FlynnJespersen4588 6 2022.02.14 13:19
789106 火熱小说 我的徒弟都是大反派討論- 第1576章 远古龙魂(1) 貞鬆勁柏 夫是 사진 DyerMacias5762 8 2022.02.14 13:19
789105 Jakże Wyszczupleć W 3 Tygodnie 5 Kg - Be ParrottCarlsson9750 8 2022.02.14 13:18
789104 Actively playing An Incredible Online ga 사진 StensgaardMeyer7722 6 2022.02.14 13:18
789103 Buying Your Initial Poker Chip Establish ThurstonNicolaisen6160 5 2022.02.14 13:18
789102 private yacht charter in istanbul Things IsaksenMahoney5589 5 2022.02.14 13:18
789101 爱不释手的小说 我的徒弟都是大反派- 第1490章 太虚的本质(1) 萬事起頭難 사진 SejersenHsu8227 10 2022.02.14 13:17
789100 Learn Your Video Gaming With One Of Thes DelacruzSigmon8978 4 2022.02.14 13:17
789099 Jak Usunąć Się Z Wyroku Sądu - Poradniki AlbertEliasen8630 5 2022.02.14 13:17
789098 What Is Cyber Safety and security and H 사진 HuntKehoe4383 5 2022.02.14 13:17